Weather History for KDYT - June, 2014

Change the Weather History Date:

Friday, June 6, 2014

  Actual Average Record
Temperature  
Mean Temperature 65 °F -  
Max Temperature 82 °F 66 °F 91 °F (1952)
Min Temperature 48 °F 45 °F 21 °F (1983)
Growing Degree Days 15 (Base 50)    
Moisture  
Dew Point 52 °F    
Average Humidity 70    
Maximum Humidity 94    
Minimum Humidity 32    
Precipitation  
Precipitation 0.00 in - - ()
Sea Level Pressure  
Sea Level Pressure 29.91 in    
Wind  
Wind Speed 3 mph (WNW)    
Max Wind Speed 15 mph    
Max Gust Speed 17 mph    
Visibility 10 miles    
Events      
Averages and records for this station are not official NWS values.
T = Trace of Precipitation, MM = Missing Value Source: NWS Daily Summary

Daily Weather History Graph

Daily Weather History Graph

Search for Another Location

Airport or City:

Trip Planner

Search our weather history database for the weather conditions in past years. The results will help you decide how hot, cold, wet, or windy it might be!

Date:

Astronomy

Jun. 06, 2014 Rise Set
Actual Time 5:15 AM CDT 8:58 PM CDT
Civil Twilight 4:36 AM CDT 9:37 PM CDT
Nautical Twilight 3:44 AM CDT 10:29 PM CDT
Astronomical Twilight 2:32 AM CDT 11:43 PM CDT
Moon 1:55 PM CDT (6/6) 1:32 AM CDT (6/6)
Length of Visible Light 17h 00m
Length of Day
15h 42m
First Quarter, 58% of the Moon is Illuminated
Jun 6
First Quarter
Jun 12
Full
Jun 19
Last Quarter
Jun 27
New
Jul 5
First Quarter

Hourly Weather History & Observations

Time (CDT) Temp. Heat Index Dew Point Humidity Pressure Visibility Wind Dir Wind Speed Gust Speed Precip Events Conditions
12:13 AM 48.2 °F - 42.8 °F 82% 29.88 in 10.0 mi Calm Calm - N/A   Clear
12:53 AM 48.2 °F - 44.6 °F 87% 29.88 in 10.0 mi Calm Calm - N/A   Clear
1:14 AM 50.0 °F - 44.6 °F 82% 29.88 in 10.0 mi Calm Calm - N/A   Clear
1:33 AM 50.0 °F - 44.6 °F 82% 29.88 in 10.0 mi Calm Calm - N/A   Clear
1:53 AM 48.2 °F - 44.6 °F 87% 29.88 in 10.0 mi Calm Calm - N/A   Clear
2:14 AM 50.0 °F - 44.6 °F 82% 29.88 in 10.0 mi Calm Calm - N/A   Clear
2:33 AM 50.0 °F - 44.6 °F 82% 29.88 in 10.0 mi Calm Calm - N/A   Clear
2:53 AM 50.0 °F - 44.6 °F 82% 29.88 in 10.0 mi Calm Calm - N/A   Mostly Cloudy
3:13 AM 50.0 °F - 46.4 °F 87% 29.88 in 10.0 mi Calm Calm - N/A   Overcast
3:34 AM 50.0 °F - 46.4 °F 87% 29.88 in 10.0 mi Calm Calm - N/A   Scattered Clouds
3:53 AM 50.0 °F - 46.4 °F 87% 29.88 in 10.0 mi Calm Calm - N/A   Scattered Clouds
4:13 AM 50.0 °F - 46.4 °F 87% 29.88 in 10.0 mi SSW 3.5 mph - N/A   Clear
4:34 AM 50.0 °F - 46.4 °F 87% 29.89 in 10.0 mi SW 4.6 mph - N/A   Scattered Clouds
4:53 AM 50.0 °F - 46.4 °F 87% 29.88 in 10.0 mi SW 4.6 mph - N/A   Overcast
5:13 AM 50.0 °F - 46.4 °F 87% 29.88 in 10.0 mi SSW 4.6 mph - N/A   Overcast
5:34 AM 50.0 °F - 46.4 °F 87% 29.89 in 10.0 mi WSW 4.6 mph - N/A   Scattered Clouds
5:53 AM 50.0 °F - 48.2 °F 94% 29.90 in 10.0 mi WSW 4.6 mph - N/A   Scattered Clouds
6:13 AM 50.0 °F - 48.2 °F 94% 29.91 in 2.0 mi WSW 4.6 mph - N/A   Overcast
6:34 AM 51.8 °F - 48.2 °F 88% 29.91 in 2.0 mi WSW 3.5 mph - N/A   Overcast
6:53 AM 51.8 °F - 48.2 °F 88% 29.91 in 10.0 mi Calm Calm - N/A   Mostly Cloudy
7:13 AM 51.8 °F - 50.0 °F 94% 29.91 in 10.0 mi South 3.5 mph - N/A   Mostly Cloudy
7:34 AM 55.4 °F - 51.8 °F 88% 29.91 in 10.0 mi SSW 3.5 mph - N/A   Scattered Clouds
7:53 AM 57.2 °F - 53.6 °F 88% 29.91 in 10.0 mi SW 4.6 mph - N/A   Clear
8:13 AM 59.0 °F - 55.4 °F 88% 29.90 in 10.0 mi SW 4.6 mph - N/A   Clear
8:34 AM 62.6 °F - 57.2 °F 82% 29.91 in 10.0 mi WSW 6.9 mph - N/A   Clear
8:53 AM 64.4 °F - 59.0 °F 83% 29.91 in 10.0 mi WSW 8.1 mph - N/A   Clear
9:13 AM 60.8 °F - 55.4 °F 82% 29.91 in 10.0 mi North 4.6 mph - N/A   Scattered Clouds
9:34 AM 53.6 °F - 51.8 °F 94% 29.92 in 10.0 mi WNW 3.5 mph - N/A   Mostly Cloudy
10:53 AM 69.8 °F - 62.6 °F 78% 29.91 in 10.0 mi WSW 4.6 mph - N/A   Clear
11:13 AM 69.8 °F - 62.6 °F 78% 29.90 in 10.0 mi WSW 4.6 mph - N/A   Clear
11:34 AM 62.6 °F - 57.2 °F 82% 29.90 in 10.0 mi Calm Calm - N/A   Clear
11:53 AM 66.2 °F - 59.0 °F 78% 29.90 in 10.0 mi Calm Calm - N/A   Clear
12:13 PM 62.6 °F - 57.2 °F 82% 29.90 in 10.0 mi Calm Calm - N/A   Clear
12:34 PM 62.6 °F - 57.2 °F 82% 29.90 in 10.0 mi Calm Calm - N/A   Clear
12:53 PM 64.4 °F - 59.0 °F 83% 29.89 in 10.0 mi Calm Calm - N/A   Scattered Clouds
1:14 PM 66.2 °F - 59.0 °F 78% 29.89 in 10.0 mi Calm Calm - N/A   Scattered Clouds
1:33 PM 69.8 °F - 62.6 °F 78% 29.89 in 10.0 mi East 3.5 mph - N/A   Clear
1:53 PM 64.4 °F - 59.0 °F 83% 29.88 in 10.0 mi East 4.6 mph - N/A   Clear
2:13 PM 68.0 °F - 60.8 °F 78% 29.89 in 10.0 mi NNE 3.5 mph - N/A   Clear
2:33 PM 69.8 °F - 60.8 °F 73% 29.88 in 10.0 mi NE 4.6 mph - N/A   Clear
2:53 PM 64.4 °F - 57.2 °F 77% 29.88 in 10.0 mi Calm Calm - N/A   Clear
3:13 PM 69.8 °F - 60.8 °F 73% 29.88 in 10.0 mi Calm Calm - N/A   Scattered Clouds
3:33 PM 71.6 °F - 64.4 °F 78% 29.88 in 10.0 mi East 4.6 mph - N/A   Scattered Clouds
4:14 PM 77.0 °F - 60.8 °F 57% 29.89 in 10.0 mi Calm Calm - N/A   Scattered Clouds
4:33 PM 77.0 °F - 60.8 °F 57% 29.88 in 10.0 mi NNE 3.5 mph - N/A   Clear
4:54 PM 78.8 °F - 59.0 °F 51% 29.88 in 10.0 mi North 5.8 mph - N/A   Clear
5:13 PM 82.4 °F 81.7 °F 55.4 °F 39% 29.89 in 10.0 mi NW 11.5 mph - N/A   Scattered Clouds
5:33 PM 82.4 °F - 51.8 °F 35% 29.89 in 10.0 mi NW 11.5 mph - N/A   Scattered Clouds
5:54 PM 80.6 °F 80.3 °F 53.6 °F 39% 29.89 in 10.0 mi WNW 12.7 mph 17.3 mph N/A   Clear
6:13 PM 80.6 °F - 48.2 °F 32% 29.90 in 10.0 mi NW 15.0 mph - N/A   Clear
6:33 PM 80.6 °F - 51.8 °F 37% 29.91 in 10.0 mi NW 10.4 mph - N/A   Clear
6:53 PM 78.8 °F - 51.8 °F 39% 29.91 in 10.0 mi NW 13.8 mph - N/A   Clear
7:13 PM 77.0 °F - 50.0 °F 39% 29.93 in 10.0 mi NNW 12.7 mph - N/A   Clear
7:34 PM 75.2 °F - 50.0 °F 41% 29.93 in 10.0 mi NW 13.8 mph - N/A   Clear
7:53 PM 75.2 °F - 46.4 °F 36% 29.95 in 10.0 mi NW 9.2 mph - N/A   Clear
8:13 PM 73.4 °F - 46.4 °F 38% 29.95 in 10.0 mi NW 8.1 mph - N/A   Clear
8:34 PM 73.4 °F - 48.2 °F 41% 29.95 in 10.0 mi NW 10.4 mph - N/A   Clear
8:53 PM 69.8 °F - 50.0 °F 49% 29.95 in 10.0 mi NNW 5.8 mph - N/A   Scattered Clouds
9:14 PM 68.0 °F - 50.0 °F 52% 29.96 in 10.0 mi North 5.8 mph - N/A   Scattered Clouds
9:33 PM 69.8 °F - 48.2 °F 46% 29.97 in 10.0 mi NW 4.6 mph - N/A   Clear
9:54 PM 71.6 °F - 48.2 °F 43% 29.97 in 10.0 mi NNW 4.6 mph - N/A   Clear
10:13 PM 69.8 °F - 48.2 °F 46% 29.98 in 10.0 mi NNW 8.1 mph - N/A   Clear
10:34 PM 69.8 °F - 48.2 °F 46% 29.99 in 10.0 mi NW 8.1 mph - N/A   Clear
10:53 PM 66.2 °F - 48.2 °F 52% 29.99 in 10.0 mi NNW 9.2 mph - N/A   Clear
11:13 PM 64.4 °F - 48.2 °F 56% 29.99 in 10.0 mi North 6.9 mph - N/A   Clear
11:34 PM 60.8 °F - 48.2 °F 63% 29.98 in 10.0 mi NNE 4.6 mph - N/A   Clear
11:53 PM 60.8 °F - 48.2 °F 63% 29.97 in 10.0 mi NE 3.5 mph - N/A   Clear